CZ-4C DEB, 43601

Orbit data source: Space-Track

CZ-4C DEB, 43601 is space debris in SSO originally from a launch on Tue, 09 Aug 2016 UTC launched from the Taiyaun Space Center, China (TSC). Debris objects in space refer to the collection of defunct objects orbiting the Earth. Examples of debris include non-operational satellites, rocket bodies, and fragments generated from explosions, collisions, or faulty payload assembly.

Loading next visibility...
Identifier
43601, 2016-049F
Orbit
SSO
Country
Flag of CNCN / PRC
Related business
Manufacturer
Unknown
Mission
Spacecraft
Bus & Motor
Unknown
Mass
Unknown
Launch date (UTC)
2016-08-09 (9 years ago)
Launch vehicle
Unknown
Launch site
Taiyaun Space Center, China (TSC)
Object type
Payload
Rocket body
Debris
Shape & HBR
Unknown
Radar Cross Section
Small (<0.1 m²)

Expand to show TLE details & history
Last TLE update: 1 day ago

TLE from 1 day ago
0 CZ-4C DEB
1 43601U 16049F   25259.60081465  .00011806  00000-0  11362-2 0  9998
2 43601  98.3124  20.3258 0076562  14.2505 346.0846 14.90928987591728
Epoch: 2025-09-16T14:25Z
TLE epoch observation values (Epoch: 2025-09-16T14:25:10.385Z)
Latitude
-0.00011°
Longitude
168.24376°
Altitude
546.253 km
Speed
7.617 km/s
True Right ascension
01h 21m 18s
True Declination
0° 00' 00"
Sunlit
Object was in full shadow at epoch
Visualization orbit readout
Latitude
Unknown
Longitude
Unknown
Altitude
Unknown
Speed
Unknown
Apparent Right ascension
Unknown
Apparent Declination
Unknown
Sunlit
N/A
Visualization observer readout
Local Sidereal Time
13:59:33
Azimuth
Unknown
Elevation
Unknown
Doppler factor
Unknown
Orbital elements
Apogee altitude
645.448 km
Perigee altitude
538.717 km
Semi-major axis
6,970.22 km
Eccentricity
0.00766
Inclination
98.3124°
RAAN
20.3258°
Arg. of periapsis
14.2505°
True anomaly
345.87163°
Mean anomaly
346.0846°
Eccentric anomaly
345.97832°
Mean motion
3.7297 °/min
Orbital period
96.52 mins
BSTAR
0.0011362
Loading maneuver chart data...
Computing Atmospheric mass density...
Loading historical data...
Loading historical data...
Loading historical data...
Loading historical data...
Loading historical data...
Loading historical data...
Loading historical data...
Other satellites on launch #49 in the year 2016 (2016-08-09 UTC)

Documentation

Showing up to 5 results
|